Location: Oakhurst
(33.6448°N, 111.9543°W)
Time: 20:51:06
(UTC+00:00)

Max Valier Satellite - Pass Details

Date: 28 July 2021
Orbit: 486 x 501 km, 97.2° (Epoch: 15 September)

Event Time Altitude Azimuth Distance (km) Brightness Sun altitude
Exits shadow 03:45:34 19° 165° (SSE) 1,224 ? -14.3°
Maximum altitude 03:48:05 84° 77° (ENE) 494 ? -14.7°
Drops below altitude 10° 03:51:41 10° 350° (N) 1,677 ? -15.3°
Sets 03:53:46 0° 350° (N) 2,563 ? -15.7°
